Summary – Current weather conditions in Chulilla

Wednesday, 20 November 2019
Puesta del sol a las Salida del sol a las
Hora Temperatures Pressure Wind Intensidad lluvia
03:14 6.2 °C 1011 mb 6 km/h 0.00 mm
03:04 6.2 °C 1011 mb 8 km/h 0.00 mm
02:54 6.2 °C 1011 mb 3 km/h 0.00 mm
02:44 6.1 °C 1011 mb 5 km/h 0.00 mm
02:34 6.3 °C 1011 mb 8 km/h 0.00 mm
02:24 6.4 °C 1012 mb 6 km/h 0.00 mm
02:14 6.4 °C 1012 mb 6 km/h 0.00 mm
02:04 6.4 °C 1012 mb 10 km/h 0.00 mm
01:54 6.4 °C 1012 mb 6 km/h 0.00 mm
01:44 6.4 °C 1012 mb 14 km/h 0.00 mm
01:34 6.4 °C 1012 mb 10 km/h 0.00 mm
01:24 6.6 °C 1012 mb 8 km/h 0.00 mm
01:14 6.6 °C 1012 mb 8 km/h 0.00 mm
01:04 6.7 °C 1012 mb 8 km/h 0.00 mm
00:54 6.7 °C 1012 mb 3 km/h 0.00 mm
00:44 6.7 °C 1012 mb 3 km/h 0.00 mm
00:34 6.8 °C 1012 mb 0 km/h 0.00 mm
00:24 6.9 °C 1012 mb 5 km/h 0.00 mm
00:14 6.9 °C 1012 mb 3 km/h 0.00 mm
00:04 7.1 °C 1012 mb 8 km/h 0.00 mm
Dia anterior